This demonstration page uses our WeatherBlox Daily Observations layout. Learn more.

Left ArrowRight Arrow

38.88101, -77.10428

Hourly Observations for April 1, 2023

Temp ( °F °C ) Dew Point ( °F °C ) Humidity (%) Winds ( mph kmh ) Pressure ( in mb ) Visibility ( mi km ) Precip ( " mm )
12:52 am 00:52 Cloudy 62 16.7 55 12.8 78 78 SSW 21 33 29.88 1012 10 16 0.00 0.00
1:10 am 01:10 Cloudy 62 16.7 55 12.8 78 78 SSW 21 33 29.88 1012 10 16 0.00 0.00
1:27 am 01:27 Cloudy 62 16.7 56 13.3 80 80 SSW 17 28 29.87 1012 10 16 0.00 0.00
1:52 am 01:52 Cloudy with Light Rain 61 16.1 57 13.9 87 87 SSW 17 28 29.84 1011 10 16 0.01 0.25
2:35 am 02:35 Cloudy with Light Rain 61 16.1 58 14.4 90 90 SSW 16 26 29.81 1010 10 16 0.01 0.25
2:52 am 02:52 Cloudy 62 16.7 58 14.4 86 86 SSW 18 30 29.81 1009 10 16 0.02 0.51
3:47 am 03:47 Cloudy 63 17 59 15 88 88 SSW 20 31 29.74 1007 10 16 0.01 0.13
3:52 am 03:52 Cloudy 63 17.2 59 15 87 87 SSW 17 28 29.74 1007 10 16 0.01 0.13
4:52 am 04:52 Cloudy 64 17.8 59 15 84 84 SSW 17 28 29.71 1006 10 16 0.01 0.13
5:52 am 05:52 Cloudy with Nearby Thunderstorms 64 17.8 59 15 84 84 SSW 22 35 29.68 1005 10 16 0.00 0.00
5:59 am 05:59 Cloudy with Thunderstorms 65 18.3 59 15 81 81 SSW 21 33 29.68 1005 10 16 0.00 0.00
6:19 am 06:19 Cloudy 65 18.3 59 15 81 81 SSW 22 35 29.67 1005 10 16 0.00 0.00
6:40 am 06:40 Cloudy 65 18.3 59 15 81 81 SSW 23 37 29.67 1005 10 16 0.01 0.13
6:52 am 06:52 Cloudy with Rain 64 17.8 59 15 84 84 SSW 18 30 29.65 1004 6 10 0.02 0.51
6:59 am 06:59 Cloudy with Thunderstorms 64 17.8 60 15.6 87 87 SSW 17 28 29.65 1004 7 11 0.01 0.25
7:22 am 07:22 Cloudy 64 17.8 60 15.6 87 87 SSW 16 26 29.66 1004 10 16 0.01 0.25
7:33 am 07:33 Cloudy with Light Rain 64 17.8 60 15.6 87 87 SSW 16 26 29.65 1004 10 16 0.01 0.25
7:52 am 07:52 Cloudy with Light Rain 64 17.8 60 15.6 87 87 SSW 16 26 29.64 1004 10 16 0.02 0.51
8:52 am 08:52 Cloudy with Light Rain 65 18.3 60 15.6 84 84 SW 17 28 29.65 1004 10 16 0.02 0.51
9:52 am 09:52 Cloudy with Light Rain 65 18.3 61 16.1 87 87 SSW 18 30 29.64 1004 10 16 0.01 0.25
10:26 am 10:26 Cloudy with Rain 62 16.7 56 13.3 80 80 WNW 16 26 29.65 1004 6 10 0.01 0.25
10:52 am 10:52 Cloudy with Light Rain 61 16.1 57 13.9 87 87 WSW 7 11 29.65 1004 7 11 0.05 1.27
11:23 am 11:23 Cloudy with Rain 61 16.1 57 13.9 87 87 W 15 24 29.67 1005 4 6 0.05 1.27
11:52 am 11:52 Cloudy with Light Rain 61 16.1 57 13.9 87 87 SE 6 9 29.60 1002 10 16 0.09 2.29
12:52 pm 12:52 Mostly Cloudy 63 17.2 58 14.4 84 84 S 12 19 29.57 1002 10 16 0.01 0.25
1:52 pm 13:52 Mostly Cloudy 68 20 60 15.6 76 76 S 13 20 29.53 1000 10 16 0.00 0.00
2:52 pm 14:52 Mostly Cloudy 73 22.8 58 14.4 59 59 S 18 30 29.44 997 10 16 0.00 0.00
3:52 pm 15:52 Mostly Cloudy 75 23.9 56 13.3 51 51 SSW 17 28 29.38 995 10 16 0.00 0.00
4:52 pm 16:52 Partly Cloudy with Nearby Thunderstorms 74 23.3 56 13.3 53 53 S 21 33 29.34 994 10 16 0.00 0.00
5:08 pm 17:08 Partly Cloudy 75 23.9 55 12.8 50 50 SSW 17 28 29.33 993 10 16 0.00 0.00
5:52 pm 17:52 Partly Cloudy 76 24.4 52 11.1 43 43 SSW 13 20 29.31 993 10 16 0.00 0.00
6:52 pm 18:52 Mostly Cloudy 76 24.4 36 2.2 23 23 W 22 35 29.36 994 10 16 0.01 0.13
7:52 pm 19:52 Cloudy with Light Rain 64 17.8 46 7.8 52 52 NNW 26 43 29.46 998 10 16 0.01 0.13
8:52 pm 20:52 Mostly Cloudy 59 15 38 3.3 45 45 NW 37 59 29.57 1001 10 16 0.01 0.13
9:52 pm 21:52 Mostly Cloudy 53 11.7 34 1.1 48 48 NW 30 48 29.63 1003 10 16 0.00 0.00
10:52 pm 22:52 Partly Cloudy 50 10 29 -1.7 44 44 NW 29 46 29.69 1006 10 16 0.00 0.00
11:52 pm 23:52 Mostly Cloudy 50 10 29 -1.7 44 44 WNW 21 33 29.79 1009 10 16 0.00 0.00

Powered by AerisWeather